Flag for El Salvador Weather past 2 weeks in San Salvador, El Salvador

Now
84 °F

Sunny.


Feels Like: 88 °F
Forecast: 67 / 84 °F
Wind: 5 mph from North

Location: San Salvador / Ilopango

Current Time: Dec 21, 2014 at 12:15:07 PM

Latest Report: Dec 21, 2014 at 10:50 AM


Visibility: 10 mi

Pressure: 30.04 "Hg

Humidity: 62%

Dew point: 70 °F

Location of San SalvadorLocation

Historic Weather in San Salvador — Graph

°F

San Salvador temperature yesterday

Maximum temperature yesterday: 88 °F (at 1:50 PM)
Minimum temperature yesterday: 66 °F (at 5:50 AM)
Average temperature yesterday: 76 °F

Past Weeks' High & Low Weather Summary

 TemperatureHumidityPressure
High88 °F (Dec 6, 12:50 PM)100% (Dec 15, 6:50 AM)30.12 "Hg (Dec 15, 6:50 AM)
Low61 °F (Dec 11, 5:50 AM)49% (Dec 10, 1:50 PM)29.83 "Hg (Dec 14, 12:50 PM)
Average75 °F71%30.02 "Hg
* Reported Dec 6 10:50 AM — Dec 21 10:50 AM, San Salvador, Weather by CustomWeather, © 2014

Note: Actual official high and low records may vary slightly from our data, if they occured in-between our weather recording intervals... More about our weather records

Advertising

San Salvador weather history for previous 24 hours

 ConditionsComfort  
Time TempWeatherWind HumidityBarometerVisibility
10:50 AM
Dec 21
84 °FSunny.5 mph62%30.04 "Hg10 mi
9:50 AM81 °FSunny.6 mph70%30.04 "Hg10 mi
8:50 AM77 °FSunny.7 mph74%30.04 "Hg10 mi
7:50 AM72 °FSunny.7 mph83%30.01 "Hg10 mi
6:50 AM68 °FSunny.2 mph88%30.01 "Hg10 mi
5:50 AM68 °FClear.5 mph88%29.98 "Hg10 mi
11:50 PM
Dec 20
72 °FPassing clouds.3 mph94%30.04 "HgN/A
10:50 PM72 °FPassing clouds.2 mph94%30.04 "HgN/A
9:50 PM73 °FPassing clouds.2 mph94%30.04 "HgN/A
8:50 PM73 °FPassing clouds.2 mph94%30.01 "HgN/A
7:50 PM75 °FPassing clouds.2 mph89%29.98 "HgN/A
6:50 PM75 °FPassing clouds.2 mph83%29.98 "HgN/A
5:50 PM77 °FPassing clouds.5 mph79%29.95 "HgN/A
4:50 PM79 °FPassing clouds.2 mph79%29.95 "HgN/A
3:50 PM84 °FPassing clouds.2 mph66%29.95 "HgN/A
2:50 PM84 °FScattered clouds.2 mph66%29.95 "HgN/A
1:50 PM88 °FPartly sunny.5 mph62%29.95 "HgN/A
12:50 PM86 °FPartly sunny.5 mph62%29.98 "HgN/A
Weather by CustomWeather, © 2014

See weather overviewHow to use our weather pages